Weather History for KFIT - May, 2014

Change the Weather History Date:

Wednesday, May 14, 2014

  Actual Average (KORH) Record (KORH)
Temperature  
Mean Temperature 60 °F 56 °F  
Max Temperature 77 °F 66 °F 87 °F (1961)
Min Temperature 46 °F 46 °F 33 °F (1939)
Degree Days  
Heating Degree Days 4 10  
Month to date heating degree days 161  
Since 1 July heating degree days 6508  
Cooling Degree Days 0 0  
Month to date cooling degree days 0  
Year to date cooling degree days 3  
Growing Degree Days 10 (Base 50)    
Moisture  
Dew Point 41 °F    
Average Humidity 54    
Maximum Humidity 83    
Minimum Humidity 30    
Precipitation  
Precipitation 0.00 in 0.13 in 1.43 in (1962)
Month to date precipitation 1.76  
Year to date precipitation 16.80  
Snow  
Snow 0.00 in 0.00 in 0.00 in (2001)
Month to date snowfall 0.0  
Since 1 July snowfall 64.1  
Snow Depth -    
Sea Level Pressure  
Sea Level Pressure 30.29 in    
Wind  
Wind Speed 4 mph (SSE)    
Max Wind Speed 14 mph    
Max Gust Speed 17 mph    
Visibility 10 miles    
Events      
T = Trace of Precipitation, MM = Missing Value Source: NWS Daily Summary

Daily Weather History Graph

Daily Weather History Graph

Search for Another Location

Airport or City:

Trip Planner

Search our weather history database for the weather conditions in past years. The results will help you decide how hot, cold, wet, or windy it might be!

Date:

Astronomy

May. 14, 2014 Rise Set
Actual Time 5:26 AM EDT 8:01 PM EDT
Civil Twilight 4:53 AM EDT 8:33 PM EDT
Nautical Twilight 4:13 AM EDT 9:13 PM EDT
Astronomical Twilight 3:28 AM EDT 9:59 PM EDT
Moon 8:02 PM EDT (5/14) 5:23 AM EDT (5/14)
Length of Visible Light 15h 39m
Length of Day
14h 35m
Full, 100% of the Moon is Illuminated
May 14
Full
May 14
Full
May 21
Last Quarter
May 28
New
Jun 5
First Quarter

Hourly Weather History & Observations

Time (EDT) Temp. Dew Point Humidity Pressure Visibility Wind Dir Wind Speed Gust Speed Precip Events Conditions
12:52 AM 46.0 °F 41.0 °F 83% 30.33 in 10.0 mi Calm Calm - N/A   Mostly Cloudy
1:52 AM 48.0 °F 39.0 °F 71% 30.32 in 10.0 mi Calm Calm - N/A   Overcast
2:52 AM 48.0 °F 37.0 °F 66% 30.32 in 10.0 mi Calm Calm - N/A   Overcast
3:52 AM 48.0 °F 36.0 °F 63% 30.32 in 10.0 mi SE 3.5 mph - N/A   Overcast
4:52 AM 48.0 °F 36.0 °F 63% 30.32 in 10.0 mi Calm Calm - N/A   Overcast
5:52 AM 46.9 °F 39.0 °F 74% 30.33 in 10.0 mi SE 4.6 mph - N/A   Clear
6:52 AM 48.0 °F 39.0 °F 71% 30.31 in 10.0 mi SE 8.1 mph - N/A   Mostly Cloudy
7:52 AM 50.0 °F 39.0 °F 66% 30.32 in 10.0 mi SSE 8.1 mph - N/A   Mostly Cloudy
8:52 AM 53.1 °F 37.0 °F 55% 30.34 in 10.0 mi SE 3.5 mph - N/A   Overcast
9:52 AM 55.0 °F 37.9 °F 53% 30.33 in 10.0 mi North - - N/A   Clear
11:52 AM 62.1 °F 39.9 °F 44% 30.32 in 10.0 mi Variable 3.5 mph - N/A   Partly Cloudy
1:52 PM 71.1 °F 41.0 °F 34% 30.28 in 10.0 mi SE 10.4 mph 16.1 mph N/A   Clear
2:52 PM 73.9 °F 41.0 °F 30% 30.27 in 10.0 mi SSE 13.8 mph 17.3 mph N/A   Clear
3:52 PM 75.9 °F 42.1 °F 30% 30.24 in 10.0 mi SSE 13.8 mph - N/A   Clear
5:52 PM 75.9 °F 44.1 °F 32% 30.23 in 10.0 mi SSE 12.7 mph - N/A   Clear
6:52 PM 73.9 °F 43.0 °F 33% 30.24 in 10.0 mi SE 10.4 mph - N/A   Mostly Cloudy
7:52 PM 70.0 °F 45.0 °F 41% 30.25 in 10.0 mi SSE 11.5 mph - N/A   Scattered Clouds
8:52 PM 68.0 °F 46.9 °F 47% 30.26 in 10.0 mi SSE 8.1 mph - N/A   Overcast
9:52 PM 66.0 °F 48.0 °F 52% 30.28 in 10.0 mi SE 8.1 mph - N/A   Overcast
11:52 PM 64.9 °F 55.9 °F 73% 30.28 in 10.0 mi SSW 5.8 mph - N/A   Overcast